,,,PA_Meas_PMT16A,,PR_Meas_QMR101_102,,RH_Meas_QMH101,,SR_Meas_QMS101,,TA_Meas_QMH101,,GenWind,,GenWind,
date,time,status,PA,status,PR,status,RH,status,SR,status,TA,status,DirAvg,status,SpdAvg,
2011-12-30, 00:00:04,VALID,1002.76,VALID,0,VALID,94.8591,VALID,0,VALID,22.1617,VALID,110,VALID,1.67109,
2011-12-30, 00:01:04,VALID,1002.7,VALID,0,VALID,94.8667,VALID,0,VALID,22.1405,VALID,109,VALID,1.08555,
2011-12-30, 00:02:04,VALID,1002.7,VALID,0,VALID,94.8667,VALID,0,VALID,22.1422,VALID,114,VALID,0.735156,
2011-12-30, 00:03:04,VALID,1002.7,VALID,0,VALID,94.8438,VALID,0,VALID,22.1422,VALID,123,VALID,0.626562,
2011-12-30, 00:04:04,VALID,1002.67,VALID,0.5,VALID,94.8896,VALID,0,VALID,22.082,VALID,128,VALID,0.610937,
2011-12-30, 00:05:04,VALID,1002.66,VALID,0,VALID,94.882,VALID,0,VALID,22.1032,VALID,128,VALID,0.188672,
2011-12-30, 00:06:04,VALID,1002.67,VALID,0,VALID,94.8743,VALID,0,VALID,22.0625,VALID,128,VALID,0.401953,
2011-12-30, 00:07:04,VALID,1002.69,VALID,0,VALID,94.8591,VALID,0,VALID,22.1032,VALID,60,VALID,0.685156,
2011-12-30, 00:08:04,VALID,1002.71,VALID,0,VALID,94.8591,VALID,0,VALID,22.082,VALID,350,VALID,0.660156,
2011-12-30, 00:09:04,VALID,1002.62,VALID,0,VALID,94.8667,VALID,0,VALID,22.082,VALID,350,VALID,0.387891,
2011-12-30, 00:10:04,VALID,1002.5,VALID,0,VALID,94.8362,VALID,0,VALID,22.082,VALID,350,VALID,0.1125,
2011-12-30, 00:11:04,VALID,1002.45,VALID,0,VALID,94.8362,VALID,0,VALID,22.1032,VALID,350,VALID,0,
2011-12-30, 00:12:04,VALID,1002.42,VALID,0,VALID,94.8362,VALID,0,VALID,22.082,VALID,350,VALID,0,
2011-12-30, 00:13:04,VALID,1002.42,VALID,0,VALID,94.8438,VALID,0,VALID,22.1227,VALID,350,VALID,0,
2011-12-30, 00:14:04,VALID,1002.43,VALID,0,VALID,94.8514,VALID,0,VALID,22.1032,VALID,350,VALID,0,
2011-12-30, 00:15:04,VALID,1002.46,VALID,0,VALID,94.8438,VALID,0,VALID,22.082,VALID,95,VALID,0.712891,
2011-12-30, 00:16:04,VALID,1002.44,VALID,0.5,VALID,94.8438,VALID,0,VALID,22.1227,VALID,95,VALID,0.842969,
2011-12-30, 00:17:04,VALID,1002.43,VALID,0,VALID,94.8285,VALID,0,VALID,22.1617,VALID,91,VALID,1.075,
2011-12-30, 00:18:04,VALID,1002.42,VALID,0,VALID,94.8285,VALID,0,VALID,22.1617,VALID,79,VALID,1.58633,
2011-12-30, 00:19:04,VALID,1002.4,VALID,0,VALID,94.8133,VALID,0,VALID,22.1617,VALID,92,VALID,1.2418,
2011-12-30, 00:20:04,VALID,1002.33,VALID,0.5,VALID,94.8362,VALID,0,VALID,22.1634,VALID,96,VALID,0.960547,
2011-12-30, 00:21:04,VALID,1002.32,VALID,0,VALID,94.8285,VALID,0,VALID,22.1227,VALID,107,VALID,0.572266,
2011-12-30, 00:22:04,VALID,1002.27,VALID,0,VALID,94.8438,VALID,0,VALID,22.1015,VALID,107,VALID,0.492188,
2011-12-30, 00:23:04,VALID,1002.23,VALID,0,VALID,94.882,VALID,0,VALID,22.0625,VALID,107,VALID,0.489062,
2011-12-30, 00:24:04,VALID,1002.18,VALID,0,VALID,94.8667,VALID,0,VALID,22.0625,VALID,107,VALID,0.498437,
2011-12-30, 00:25:04,VALID,1002.14,VALID,0.5,VALID,94.8743,VALID,0,VALID,22.0447,VALID,107,VALID,0.842578,
2011-12-30, 00:26:04,VALID,1002.14,VALID,0,VALID,94.8896,VALID,0,VALID,22.004,VALID,107,VALID,0.592578,
2011-12-30, 00:27:04,VALID,1002.09,VALID,0,VALID,94.8667,VALID,0,VALID,21.9845,VALID,133,VALID,0.868359,
2011-12-30, 00:28:04,VALID,1002.05,VALID,0,VALID,94.8667,VALID,0,VALID,22.0057,VALID,133,VALID,0.910937,
2011-12-30, 00:29:04,VALID,1001.96,VALID,0,VALID,94.8743,VALID,0,VALID,21.9845,VALID,152,VALID,1.30547,
2011-12-30, 00:30:04,VALID,1001.91,VALID,0,VALID,94.8591,VALID,0,VALID,22.0252,VALID,161,VALID,1.41367,
2011-12-30, 00:31:04,VALID,1001.87,VALID,0,VALID,94.8438,VALID,0,VALID,22.043,VALID,158,VALID,1.55547,
2011-12-30, 00:32:04,VALID,1001.89,VALID,0,VALID,94.8362,VALID,0,VALID,22.0642,VALID,157,VALID,1.37695,
2011-12-30, 00:33:04,VALID,1001.89,VALID,0.5,VALID,94.8285,VALID,0,VALID,22.1032,VALID,146,VALID,1.36914,
2011-12-30, 00:34:04,VALID,1001.91,VALID,0,VALID,94.8362,VALID,0,VALID,22.1227,VALID,142,VALID,1.19727,
2011-12-30, 00:35:04,VALID,1001.91,VALID,0,VALID,94.8209,VALID,0,VALID,22.1227,VALID,137,VALID,1.50469,
2011-12-30, 00:36:04,VALID,1001.91,VALID,0,VALID,94.8285,VALID,0,VALID,22.1227,VALID,130,VALID,1.57344,
2011-12-30, 00:37:04,VALID,1001.9,VALID,0,VALID,94.8285,VALID,0,VALID,22.1422,VALID,118,VALID,1.50273,
2011-12-30, 00:38:04,VALID,1001.89,VALID,0,VALID,94.8362,VALID,0,VALID,22.1015,VALID,117,VALID,1.63789,
2011-12-30, 00:39:04,VALID,1001.88,VALID,0,VALID,94.8209,VALID,0,VALID,22.1015,VALID,113,VALID,1.77148,
2011-12-30, 00:40:04,VALID,1001.85,VALID,0,VALID,94.8438,VALID,0,VALID,22.1227,VALID,118,VALID,1.88906,
2011-12-30, 00:41:04,VALID,1001.84,VALID,0,VALID,94.8362,VALID,0,VALID,22.1015,VALID,114,VALID,1.83867,
2011-12-30, 00:42:04,VALID,1001.83,VALID,0,VALID,94.8285,VALID,0,VALID,22.082,VALID,118,VALID,1.89844,
2011-12-30, 00:43:04,VALID,1001.84,VALID,0,VALID,94.8438,VALID,0,VALID,22.0625,VALID,110,VALID,1.79414,
2011-12-30, 00:44:04,VALID,1001.84,VALID,0,VALID,94.8591,VALID,0,VALID,22.0447,VALID,115,VALID,1.41055,
2011-12-30, 00:45:04,VALID,1001.81,VALID,0,VALID,94.8667,VALID,0,VALID,22.0252,VALID,127,VALID,1.38047,
2011-12-30, 00:46:04,VALID,1001.79,VALID,0,VALID,94.8667,VALID,0,VALID,22.004,VALID,116,VALID,1.5418,
2011-12-30, 00:47:04,VALID,1001.78,VALID,0,VALID,94.882,VALID,0,VALID,22.0057,VALID,122,VALID,1.43242,
2011-12-30, 00:48:04,VALID,1001.78,VALID,0,VALID,94.8667,VALID,0,VALID,22.0252,VALID,110,VALID,1.04023,
2011-12-30, 00:49:04,VALID,1001.77,VALID,0.5,VALID,94.882,VALID,0,VALID,21.9845,VALID,117,VALID,1.18242,
2011-12-30, 00:50:04,VALID,1001.77,VALID,0,VALID,94.882,VALID,0,VALID,21.9862,VALID,113,VALID,0.674609,
2011-12-30, 00:51:04,VALID,1001.76,VALID,0,VALID,94.8667,VALID,0,VALID,21.9845,VALID,93,VALID,0.973047,
2011-12-30, 00:52:04,VALID,1001.75,VALID,0,VALID,94.8591,VALID,0,VALID,21.9845,VALID,89,VALID,1.03711,
2011-12-30, 00:53:04,VALID,1001.72,VALID,0,VALID,94.8667,VALID,0,VALID,21.9862,VALID,99,VALID,1.2043,
2011-12-30, 00:54:04,VALID,1001.71,VALID,0,VALID,94.8667,VALID,0,VALID,21.9845,VALID,108,VALID,0.800781,
2011-12-30, 00:55:04,VALID,1001.72,VALID,0,VALID,94.8743,VALID,0,VALID,21.9845,VALID,91,VALID,0.966797,
2011-12-30, 00:56:04,VALID,1001.75,VALID,0,VALID,94.8743,VALID,0,VALID,21.965,VALID,89,VALID,0.687109,
2011-12-30, 00:57:04,VALID,1001.74,VALID,0,VALID,94.8896,VALID,0,VALID,21.9455,VALID,81,VALID,0.464844,
2011-12-30, 00:58:04,VALID,1001.69,VALID,0,VALID,94.8896,VALID,0,VALID,21.926,VALID,59,VALID,0.662109,
2011-12-30, 00:59:04,VALID,1001.72,VALID,0,VALID,94.882,VALID,0,VALID,21.926,VALID,79,VALID,0.800391,
2011-12-30, 01:00:04,VALID,1001.71,VALID,0,VALID,94.882,VALID,0,VALID,21.926,VALID,93,VALID,0.967188,
2011-12-30, 01:01:04,VALID,1001.66,VALID,0,VALID,94.8896,VALID,0,VALID,21.9065,VALID,93,VALID,0.766016,
2011-12-30, 01:02:04,VALID,1001.67,VALID,0,VALID,94.882,VALID,0,VALID,21.926,VALID,93,VALID,0.663281,
2011-12-30, 01:03:04,VALID,1001.63,VALID,0,VALID,94.882,VALID,0,VALID,21.9472,VALID,93,VALID,0.4875,
2011-12-30, 01:04:04,VALID,1001.63,VALID,0,VALID,94.882,VALID,0,VALID,21.9455,VALID,91,VALID,0.662109,
2011-12-30, 01:05:04,VALID,1001.6,VALID,0,VALID,94.8743,VALID,0,VALID,21.926,VALID,80,VALID,1.05781,
2011-12-30, 01:06:04,VALID,1001.59,VALID,0,VALID,94.8667,VALID,0,VALID,21.9455,VALID,78,VALID,0.725391,
2011-12-30, 01:07:04,VALID,1001.57,VALID,0,VALID,94.882,VALID,0,VALID,21.9862,VALID,78,VALID,0.789063,
2011-12-30, 01:08:04,VALID,1001.58,VALID,0,VALID,94.8591,VALID,0,VALID,21.9862,VALID,78,VALID,0.844531,
2011-12-30, 01:09:04,VALID,1001.54,VALID,0,VALID,94.8667,VALID,0,VALID,21.965,VALID,78,VALID,0.700781,
2011-12-30, 01:10:04,VALID,1001.52,VALID,0,VALID,94.8667,VALID,0,VALID,21.965,VALID,78,VALID,0.350781,
2011-12-30, 01:11:04,VALID,1001.48,VALID,0,VALID,94.8514,VALID,0,VALID,21.9845,VALID,78,VALID,0.415234,
2011-12-30, 01:12:04,VALID,1001.49,VALID,0.5,VALID,94.8514,VALID,0,VALID,21.965,VALID,78,VALID,0.487109,
2011-12-30, 01:13:04,VALID,1001.43,VALID,0,VALID,94.8514,VALID,0,VALID,22.0057,VALID,78,VALID,0.403125,
2011-12-30, 01:14:04,VALID,1001.42,VALID,0,VALID,94.8514,VALID,0,VALID,21.9845,VALID,78,VALID,0.344922,
2011-12-30, 01:15:04,VALID,1001.38,VALID,0,VALID,94.8591,VALID,0,VALID,22.0057,VALID,78,VALID,0.203125,
2011-12-30, 01:16:04,VALID,1001.34,VALID,0,VALID,94.8514,VALID,0,VALID,21.9845,VALID,78,VALID,0,
2011-12-30, 01:17:04,VALID,1001.3,VALID,0,VALID,94.8285,VALID,0,VALID,21.9845,VALID,78,VALID,0,
2011-12-30, 01:18:04,VALID,1001.31,VALID,0,VALID,94.8438,VALID,0,VALID,22.0057,VALID,78,VALID,0,
2011-12-30, 01:19:04,VALID,1001.27,VALID,0,VALID,94.8514,VALID,0,VALID,22.0057,VALID,78,VALID,0.185156,
2011-12-30, 01:20:04,VALID,1001.29,VALID,0,VALID,94.8591,VALID,0,VALID,22.0252,VALID,78,VALID,0.0601562,
2011-12-30, 01:21:04,VALID,1001.26,VALID,0,VALID,94.8362,VALID,0,VALID,21.9845,VALID,78,VALID,0.00078125,
2011-12-30, 01:22:04,VALID,1001.28,VALID,0,VALID,94.8514,VALID,0,VALID,22.004,VALID,78,VALID,0.503516,
2011-12-30, 01:23:04,VALID,1001.28,VALID,0,VALID,94.8285,VALID,0,VALID,22.004,VALID,91,VALID,0.687109,
2011-12-30, 01:24:04,VALID,1001.29,VALID,0,VALID,94.8285,VALID,0,VALID,22.0447,VALID,93,VALID,0.974219,
2011-12-30, 01:25:04,VALID,1001.29,VALID,0,VALID,94.8285,VALID,0,VALID,22.0625,VALID,93,VALID,0.892187,
2011-12-30, 01:26:04,VALID,1001.28,VALID,0,VALID,94.7904,VALID,0,VALID,22.1032,VALID,93,VALID,1.02031,
2011-12-30, 01:27:04,VALID,1001.29,VALID,0,VALID,94.798,VALID,0,VALID,22.1032,VALID,108,VALID,0.644531,
2011-12-30, 01:28:04,VALID,1001.28,VALID,0,VALID,94.8133,VALID,0,VALID,22.1015,VALID,108,VALID,0.63125,
2011-12-30, 01:29:04,VALID,1001.3,VALID,0,VALID,94.798,VALID,0,VALID,22.1015,VALID,105,VALID,0.677734,
2011-12-30, 01:30:04,VALID,1001.26,VALID,0,VALID,94.8057,VALID,0,VALID,22.121,VALID,98,VALID,0.852734,
2011-12-30, 01:31:04,VALID,1001.29,VALID,0,VALID,94.8133,VALID,0,VALID,22.121,VALID,107,VALID,0.451953,
2011-12-30, 01:32:04,VALID,1001.26,VALID,0,VALID,94.8133,VALID,0,VALID,22.1405,VALID,75,VALID,0.659766,
2011-12-30, 01:33:04,VALID,1001.24,VALID,0,VALID,94.8057,VALID,0,VALID,22.121,VALID,83,VALID,0.799609,
2011-12-30, 01:34:04,VALID,1001.23,VALID,0,VALID,94.8285,VALID,0,VALID,22.1015,VALID,78,VALID,0.941406,
2011-12-30, 01:35:04,VALID,1001.23,VALID,0,VALID,94.8209,VALID,0,VALID,22.1227,VALID,66,VALID,0.835547,
2011-12-30, 01:36:04,VALID,1001.23,VALID,0,VALID,94.8133,VALID,0,VALID,22.1015,VALID,66,VALID,0.64375,
2011-12-30, 01:37:04,VALID,1001.24,VALID,0,VALID,94.8285,VALID,0,VALID,22.1032,VALID,66,VALID,0.742188,
2011-12-30, 01:38:04,VALID,1001.25,VALID,0,VALID,94.8591,VALID,0,VALID,22.082,VALID,63,VALID,0.839453,
2011-12-30, 01:39:04,VALID,1001.25,VALID,0,VALID,94.8438,VALID,0,VALID,22.082,VALID,66,VALID,0.389062,
2011-12-30, 01:40:04,VALID,1001.23,VALID,0,VALID,94.8514,VALID,0,VALID,22.082,VALID,66,VALID,0.481641,
2011-12-30, 01:41:04,VALID,1001.24,VALID,0,VALID,94.8438,VALID,0,VALID,22.082,VALID,89,VALID,0.548828,
2011-12-30, 01:42:04,VALID,1001.25,VALID,0,VALID,94.8362,VALID,0,VALID,22.1227,VALID,89,VALID,0.312109,
2011-12-30, 01:43:04,VALID,1001.23,VALID,0,VALID,94.8133,VALID,0,VALID,22.1227,VALID,89,VALID,0.474609,
2011-12-30, 01:44:04,VALID,1001.23,VALID,0,VALID,94.8133,VALID,0,VALID,22.1422,VALID,89,VALID,0.558984,
2011-12-30, 01:45:04,VALID,1001.21,VALID,0,VALID,94.8209,VALID,0,VALID,22.121,VALID,87,VALID,0.878125,
2011-12-30, 01:46:04,VALID,1001.2,VALID,0,VALID,94.8362,VALID,0,VALID,22.121,VALID,83,VALID,0.788281,
2011-12-30, 01:47:04,VALID,1001.18,VALID,0,VALID,94.8133,VALID,0,VALID,22.1405,VALID,83,VALID,0.303906,
2011-12-30, 01:48:04,VALID,1001.18,VALID,0,VALID,94.8133,VALID,0,VALID,22.1617,VALID,95,VALID,0.700781,
2011-12-30, 01:49:04,VALID,1001.13,VALID,0,VALID,94.8209,VALID,0,VALID,22.1015,VALID,79,VALID,0.524609,
2011-12-30, 01:50:04,VALID,1001.14,VALID,0,VALID,94.8209,VALID,0,VALID,22.1422,VALID,83,VALID,0.642969,
2011-12-30, 01:51:04,VALID,1001.11,VALID,0,VALID,94.8209,VALID,0,VALID,22.1422,VALID,74,VALID,0.540625,
2011-12-30, 01:52:04,VALID,1001.09,VALID,0,VALID,94.8438,VALID,0,VALID,22.1015,VALID,74,VALID,0,
2011-12-30, 01:53:04,VALID,1001.12,VALID,0,VALID,94.8209,VALID,0,VALID,22.1015,VALID,74,VALID,0,
2011-12-30, 01:54:04,VALID,1001.11,VALID,0,VALID,94.8133,VALID,0,VALID,22.1015,VALID,74,VALID,0,
2011-12-30, 01:55:04,VALID,1001.1,VALID,0,VALID,94.8285,VALID,0,VALID,22.1227,VALID,74,VALID,0,
2011-12-30, 01:56:04,VALID,1001.11,VALID,0,VALID,94.8133,VALID,0,VALID,22.1227,VALID,74,VALID,0,
2011-12-30, 01:57:04,VALID,1001.09,VALID,0,VALID,94.8133,VALID,0,VALID,22.1015,VALID,74,VALID,0,
2011-12-30, 01:58:04,VALID,1001.07,VALID,0,VALID,94.8285,VALID,0,VALID,22.121,VALID,74,VALID,0,
2011-12-30, 01:59:04,VALID,1001.04,VALID,0,VALID,94.8133,VALID,0,VALID,22.121,VALID,75,VALID,0,
2011-12-30, 02:00:04,VALID,1001.03,VALID,0,VALID,94.8209,VALID,0,VALID,22.121,VALID,75,VALID,0,
2011-12-30, 02:01:04,VALID,1001.01,VALID,0,VALID,94.8133,VALID,0,VALID,22.121,VALID,107,VALID,0.525781,
2011-12-30, 02:02:04,VALID,1001.02,VALID,0,VALID,94.8209,VALID,0,VALID,22.1617,VALID,127,VALID,0.617188,
2011-12-30, 02:03:04,VALID,1000.99,VALID,0,VALID,94.798,VALID,0,VALID,22.1812,VALID,133,VALID,0.760156,
2011-12-30, 02:04:04,VALID,1000.96,VALID,0,VALID,94.8057,VALID,0,VALID,22.1795,VALID,131,VALID,1.05391,
2011-12-30, 02:05:04,VALID,1000.95,VALID,0,VALID,94.8057,VALID,0,VALID,22.2007,VALID,130,VALID,0.596484,
2011-12-30, 02:06:04,VALID,1000.93,VALID,0,VALID,94.7904,VALID,0,VALID,22.2202,VALID,131,VALID,0.488672,
2011-12-30, 02:07:04,VALID,1000.92,VALID,0,VALID,94.7904,VALID,0,VALID,22.1974,VALID,131,VALID,0.492969,
2011-12-30, 02:08:04,VALID,1000.9,VALID,0,VALID,94.7828,VALID,0,VALID,22.2397,VALID,131,VALID,0.176172,
2011-12-30, 02:09:04,VALID,1000.91,VALID,0,VALID,94.798,VALID,0,VALID,22.2397,VALID,131,VALID,0.0121094,
2011-12-30, 02:10:04,VALID,1000.93,VALID,0,VALID,94.798,VALID,0.104696,VALID,22.2169,VALID,130,VALID,0,
2011-12-30, 02:11:04,VALID,1000.89,VALID,0,VALID,94.798,VALID,0,VALID,22.2169,VALID,131,VALID,0,
2011-12-30, 02:12:04,VALID,1000.92,VALID,0,VALID,94.8133,VALID,0,VALID,22.2186,VALID,130,VALID,0,
2011-12-30, 02:13:04,VALID,1000.9,VALID,0,VALID,94.7828,VALID,0,VALID,22.2576,VALID,130,VALID,0,
2011-12-30, 02:14:04,VALID,1000.92,VALID,0,VALID,94.798,VALID,0,VALID,22.2364,VALID,130,VALID,0,
2011-12-30, 02:15:04,VALID,1000.9,VALID,0,VALID,94.7828,VALID,0,VALID,22.2364,VALID,130,VALID,0,
2011-12-30, 02:16:04,VALID,1000.91,VALID,0,VALID,94.7675,VALID,0.104696,VALID,22.2771,VALID,113,VALID,0.328906,
2011-12-30, 02:17:04,VALID,1000.88,VALID,0,VALID,94.7751,VALID,0.104696,VALID,22.2771,VALID,95,VALID,0.771875,
2011-12-30, 02:18:04,VALID,1000.87,VALID,0,VALID,94.7904,VALID,0.104696,VALID,22.2559,VALID,96,VALID,0.622266,
2011-12-30, 02:19:04,VALID,1000.83,VALID,0,VALID,94.7599,VALID,0.104696,VALID,22.2966,VALID,96,VALID,0.2125,
2011-12-30, 02:20:04,VALID,1000.81,VALID,0,VALID,94.7828,VALID,0,VALID,22.2754,VALID,96,VALID,0,
2011-12-30, 02:21:04,VALID,1000.76,VALID,0,VALID,94.7904,VALID,0,VALID,22.3161,VALID,96,VALID,0,
2011-12-30, 02:22:04,VALID,1000.78,VALID,0,VALID,94.7751,VALID,0,VALID,22.2966,VALID,96,VALID,0,
2011-12-30, 02:23:04,VALID,1000.74,VALID,0,VALID,94.7828,VALID,0.104696,VALID,22.2949,VALID,96,VALID,0,
2011-12-30, 02:24:04,VALID,1000.72,VALID,0,VALID,94.7751,VALID,0.104696,VALID,22.2949,VALID,96,VALID,0,
2011-12-30, 02:25:04,VALID,1000.77,VALID,0,VALID,94.7904,VALID,0,VALID,22.3178,VALID,96,VALID,0,
2011-12-30, 02:26:04,VALID,1000.74,VALID,0,VALID,94.798,VALID,0,VALID,22.2576,VALID,96,VALID,0,
2011-12-30, 02:27:04,VALID,1000.73,VALID,0,VALID,94.798,VALID,0,VALID,22.2381,VALID,96,VALID,0,
2011-12-30, 02:28:04,VALID,1000.72,VALID,0,VALID,94.8133,VALID,0,VALID,22.2788,VALID,96,VALID,0,
2011-12-30, 02:29:04,VALID,1000.72,VALID,0,VALID,94.7828,VALID,0,VALID,22.2788,VALID,96,VALID,0,
2011-12-30, 02:30:04,VALID,1000.7,VALID,0,VALID,94.8057,VALID,0,VALID,22.2381,VALID,96,VALID,0,
2011-12-30, 02:31:04,VALID,1000.68,VALID,0,VALID,94.7904,VALID,0,VALID,22.2788,VALID,96,VALID,0,
2011-12-30, 02:32:04,VALID,1000.65,VALID,0,VALID,94.7904,VALID,0,VALID,22.2983,VALID,96,VALID,0,
2011-12-30, 02:33:04,VALID,1000.65,VALID,0,VALID,94.7828,VALID,0,VALID,22.2788,VALID,96,VALID,0,
2011-12-30, 02:34:04,VALID,1000.66,VALID,0,VALID,94.798,VALID,0,VALID,22.2771,VALID,96,VALID,0,
2011-12-30, 02:35:04,VALID,1000.62,VALID,0,VALID,94.7828,VALID,0,VALID,22.2966,VALID,87,VALID,0.592969,
2011-12-30, 02:36:04,VALID,1000.62,VALID,0,VALID,94.7828,VALID,0,VALID,22.2983,VALID,34,VALID,0.799219,
2011-12-30, 02:37:04,VALID,1000.61,VALID,0,VALID,94.7828,VALID,0,VALID,22.2983,VALID,34,VALID,0.846484,
2011-12-30, 02:38:04,VALID,1000.61,VALID,0,VALID,94.7675,VALID,0,VALID,22.2966,VALID,34,VALID,0.878906,
2011-12-30, 02:39:04,VALID,1000.61,VALID,0,VALID,94.7523,VALID,0,VALID,22.3161,VALID,34,VALID,0.660937,
2011-12-30, 02:40:04,VALID,1000.6,VALID,0,VALID,94.7751,VALID,0,VALID,22.3161,VALID,45,VALID,0.665234,
2011-12-30, 02:41:04,VALID,1000.62,VALID,0,VALID,94.7599,VALID,0,VALID,22.3356,VALID,40,VALID,0.891797,
2011-12-30, 02:42:04,VALID,1000.59,VALID,0,VALID,94.7523,VALID,0,VALID,22.3568,VALID,47,VALID,1.19062,
2011-12-30, 02:43:04,VALID,1000.6,VALID,0,VALID,94.7446,VALID,0,VALID,22.3356,VALID,43,VALID,1.04414,
2011-12-30, 02:44:04,VALID,1000.59,VALID,0,VALID,94.7751,VALID,0,VALID,22.3568,VALID,54,VALID,1.13711,
2011-12-30, 02:45:04,VALID,1000.57,VALID,0,VALID,94.7751,VALID,0,VALID,22.3551,VALID,45,VALID,0.905078,
2011-12-30, 02:46:04,VALID,1000.56,VALID,0,VALID,94.7599,VALID,0,VALID,22.3551,VALID,38,VALID,1.29531,
2011-12-30, 02:47:04,VALID,1000.58,VALID,0,VALID,94.7675,VALID,0,VALID,22.3161,VALID,49,VALID,1.37227,
2011-12-30, 02:48:04,VALID,1000.57,VALID,0,VALID,94.7828,VALID,0,VALID,22.3161,VALID,45,VALID,0.958984,
2011-12-30, 02:49:04,VALID,1000.6,VALID,0,VALID,94.7751,VALID,0,VALID,22.3373,VALID,62,VALID,1.02734,
2011-12-30, 02:50:04,VALID,1000.57,VALID,0,VALID,94.7751,VALID,0,VALID,22.3373,VALID,76,VALID,1.24023,
2011-12-30, 02:51:04,VALID,1000.6,VALID,0,VALID,94.798,VALID,0,VALID,22.3161,VALID,89,VALID,0.949219,
2011-12-30, 02:52:04,VALID,1000.57,VALID,0,VALID,94.7751,VALID,0,VALID,22.3356,VALID,98,VALID,1.14648,
2011-12-30, 02:53:04,VALID,1000.57,VALID,0,VALID,94.7828,VALID,0,VALID,22.3356,VALID,104,VALID,0.926172,
2011-12-30, 02:54:04,VALID,1000.57,VALID,0,VALID,94.7828,VALID,0,VALID,22.3551,VALID,111,VALID,0.724609,
2011-12-30, 02:55:04,VALID,1000.59,VALID,0,VALID,94.7751,VALID,0,VALID,22.3356,VALID,111,VALID,0.0453125,
2011-12-30, 02:56:04,VALID,1000.57,VALID,0,VALID,94.7828,VALID,0,VALID,22.3763,VALID,111,VALID,0.298047,
2011-12-30, 02:57:04,VALID,1000.58,VALID,0,VALID,94.7828,VALID,0,VALID,22.3958,VALID,111,VALID,0.0921875,
2011-12-30, 02:58:04,VALID,1000.58,VALID,0,VALID,94.7828,VALID,0,VALID,22.3746,VALID,111,VALID,0.426562,
2011-12-30, 02:59:04,VALID,1000.57,VALID,0,VALID,94.7751,VALID,0,VALID,22.3958,VALID,111,VALID,0.450391,
2011-12-30, 03:00:04,VALID,1000.57,VALID,0,VALID,94.7751,VALID,0,VALID,22.3746,VALID,111,VALID,0.592578,
2011-12-30, 03:01:04,VALID,1000.61,VALID,0,VALID,94.7599,VALID,0,VALID,22.3958,VALID,111,VALID,0.341797,
2011-12-30, 03:02:04,VALID,1000.59,VALID,0,VALID,94.7675,VALID,0,VALID,22.3958,VALID,111,VALID,0.192188,
2011-12-30, 03:03:04,VALID,1000.6,VALID,0,VALID,94.7599,VALID,0,VALID,22.3746,VALID,111,VALID,0,
2011-12-30, 03:04:04,VALID,1000.62,VALID,0,VALID,94.7675,VALID,0,VALID,22.3941,VALID,111,VALID,0,
2011-12-30, 03:05:04,VALID,1000.58,VALID,0,VALID,94.7599,VALID,0,VALID,22.4153,VALID,111,VALID,0,
2011-12-30, 03:06:04,VALID,1000.57,VALID,0,VALID,94.7751,VALID,0,VALID,22.4153,VALID,111,VALID,0,
2011-12-30, 03:07:04,VALID,1000.56,VALID,0,VALID,94.7675,VALID,0,VALID,22.4153,VALID,111,VALID,0,
2011-12-30, 03:08:04,VALID,1000.58,VALID,0,VALID,94.7599,VALID,0,VALID,22.4348,VALID,111,VALID,0,
2011-12-30, 03:09:04,VALID,1000.52,VALID,0,VALID,94.7599,VALID,0,VALID,22.4136,VALID,93,VALID,0.446484,
2011-12-30, 03:10:04,VALID,1000.58,VALID,0,VALID,94.737,VALID,0,VALID,22.4348,VALID,93,VALID,0.719922,
2011-12-30, 03:11:04,VALID,1000.57,VALID,0,VALID,94.7599,VALID,0,VALID,22.4331,VALID,93,VALID,0.437109,
2011-12-30, 03:12:04,VALID,1000.59,VALID,0,VALID,94.7599,VALID,0,VALID,22.4738,VALID,38,VALID,0.708203,
2011-12-30, 03:13:04,VALID,1000.63,VALID,0,VALID,94.7446,VALID,0,VALID,22.4136,VALID,38,VALID,0.523047,
2011-12-30, 03:14:04,VALID,1000.62,VALID,0,VALID,94.7523,VALID,0,VALID,22.4136,VALID,38,VALID,0.548437,
2011-12-30, 03:15:04,VALID,1000.66,VALID,0,VALID,94.7751,VALID,0,VALID,22.4153,VALID,38,VALID,0.280469,
2011-12-30, 03:16:04,VALID,1000.62,VALID,0,VALID,94.7751,VALID,0,VALID,22.4153,VALID,38,VALID,0.269922,
2011-12-30, 03:17:04,VALID,1000.65,VALID,0,VALID,94.7599,VALID,0,VALID,22.4153,VALID,38,VALID,0.273828,
2011-12-30, 03:18:04,VALID,1000.64,VALID,0,VALID,94.7675,VALID,0,VALID,22.3941,VALID,38,VALID,0.1125,
2011-12-30, 03:19:04,VALID,1000.61,VALID,0,VALID,94.7828,VALID,0,VALID,22.4348,VALID,38,VALID,0.299219,
2011-12-30, 03:20:04,VALID,1000.63,VALID,0,VALID,94.7751,VALID,0,VALID,22.4136,VALID,38,VALID,0.439063,
2011-12-30, 03:21:04,VALID,1000.61,VALID,0,VALID,94.7751,VALID,0,VALID,22.4348,VALID,38,VALID,0.620703,
2011-12-30, 03:22:04,VALID,1000.62,VALID,0,VALID,94.7523,VALID,0,VALID,22.4136,VALID,38,VALID,0.546484,
2011-12-30, 03:23:04,VALID,1000.61,VALID,0,VALID,94.7599,VALID,0,VALID,22.4331,VALID,38,VALID,0.623438,
2011-12-30, 03:24:04,VALID,1000.6,VALID,0,VALID,94.7751,VALID,0,VALID,22.4136,VALID,38,VALID,0.375,
2011-12-30, 03:25:04,VALID,1000.61,VALID,0,VALID,94.7904,VALID,0,VALID,22.4348,VALID,38,VALID,0.0308594,
2011-12-30, 03:26:04,VALID,1000.59,VALID,0,VALID,94.7675,VALID,0,VALID,22.4136,VALID,38,VALID,0,
2011-12-30, 03:27:04,VALID,1000.61,VALID,0,VALID,94.7599,VALID,0,VALID,22.4348,VALID,54,VALID,0.25,
2011-12-30, 03:28:04,VALID,1000.62,VALID,0,VALID,94.7675,VALID,0,VALID,22.4348,VALID,64,VALID,0.441016,
2011-12-30, 03:29:04,VALID,1000.62,VALID,0,VALID,94.7523,VALID,0,VALID,22.4136,VALID,64,VALID,0.416016,
2011-12-30, 03:30:04,VALID,1000.64,VALID,0,VALID,94.7523,VALID,0,VALID,22.4331,VALID,64,VALID,0,
2011-12-30, 03:31:04,VALID,1000.65,VALID,0,VALID,94.7751,VALID,0,VALID,22.4136,VALID,64,VALID,0,
2011-12-30, 03:32:04,VALID,1000.66,VALID,0,VALID,94.7751,VALID,0,VALID,22.4136,VALID,64,VALID,0,
2011-12-30, 03:33:04,VALID,1000.64,VALID,0,VALID,94.7751,VALID,0,VALID,22.4331,VALID,64,VALID,0,
2011-12-30, 03:34:04,VALID,1000.65,VALID,0,VALID,94.7523,VALID,0,VALID,22.4331,VALID,64,VALID,0,
2011-12-30, 03:35:04,VALID,1000.65,VALID,0,VALID,94.7751,VALID,0,VALID,22.4331,VALID,64,VALID,0,
2011-12-30, 03:36:04,VALID,1000.65,VALID,0,VALID,94.7599,VALID,0,VALID,22.4331,VALID,64,VALID,0.524609,
2011-12-30, 03:37:04,VALID,1000.68,VALID,0,VALID,94.7675,VALID,0,VALID,22.4331,VALID,64,VALID,0.0976563,
2011-12-30, 03:38:04,VALID,1000.68,VALID,0,VALID,94.737,VALID,0,VALID,22.4526,VALID,64,VALID,0.354688,
2011-12-30, 03:39:04,VALID,1000.69,VALID,0,VALID,94.7523,VALID,0,VALID,22.4721,VALID,89,VALID,0.64375,
2011-12-30, 03:40:04,VALID,1000.7,VALID,0,VALID,94.7523,VALID,0,VALID,22.4916,VALID,89,VALID,0.545313,
2011-12-30, 03:41:04,VALID,1000.72,VALID,0,VALID,94.7446,VALID,0,VALID,22.5111,VALID,89,VALID,0.666797,
2011-12-30, 03:42:04,VALID,1000.7,VALID,0,VALID,94.7446,VALID,0,VALID,22.5306,VALID,89,VALID,0.616406,
2011-12-30, 03:43:04,VALID,1000.72,VALID,0,VALID,94.7294,VALID,0,VALID,22.5306,VALID,89,VALID,0.835156,
2011-12-30, 03:44:04,VALID,1000.73,VALID,0,VALID,94.7446,VALID,0,VALID,22.5501,VALID,89,VALID,0.774609,
2011-12-30, 03:45:04,VALID,1000.78,VALID,0,VALID,94.7446,VALID,0,VALID,22.5501,VALID,89,VALID,0.724219,
2011-12-30, 03:46:04,VALID,1000.75,VALID,0,VALID,94.7446,VALID,0,VALID,22.5714,VALID,89,VALID,0.468359,
2011-12-30, 03:47:04,VALID,1000.75,VALID,0,VALID,94.7599,VALID,0,VALID,22.5714,VALID,89,VALID,0.507031,
2011-12-30, 03:48:04,VALID,1000.74,VALID,0,VALID,94.737,VALID,0,VALID,22.5501,VALID,89,VALID,0.211719,
2011-12-30, 03:49:04,VALID,1000.75,VALID,0,VALID,94.7675,VALID,0,VALID,22.5714,VALID,89,VALID,0,